Ahmedabad, India

2:39 PM IST on September 24, 2017 (GMT +0530)
Ahmedabad

Weather History for VAAH - October, 2013

Change the Weather History Date:

Saturday, October 12, 2013

  Actual Average Record
Temperature  
Mean Temperature 82 °F -  
Max Temperature 91 °F 90 °F 100 °F (2014)
Min Temperature 73 °F 66 °F 68 °F (1996)
Cooling Degree Days 17    
Growing Degree Days 32 (Base 50)    
Moisture  
Dew Point 77 °F    
Average Humidity 80    
Maximum Humidity 94    
Minimum Humidity 57    
Precipitation  
Precipitation 0.00 in 0.03 in - ()
Sea Level Pressure  
Sea Level Pressure 29.74 in    
Wind  
Wind Speed 3 mph ()    
Max Wind Speed 7 mph    
Max Gust Speed -    
Visibility 2.4 miles    
Events      
Averages and records for this station are not official NWS values.
T = Trace of Precipitation, MM = Missing Value Source: Averaged Metar Reports

Daily Weather History Graph

Daily Weather History Graph

Search for Another Location

Airport or City:

Trip Planner

Search our weather history database for the weather conditions in past years. The results will help you decide how hot, cold, wet, or windy it might be!

Date:

Astronomy

Oct. 12, 2013 Rise Set
Actual Time 6:35 AM IST 6:16 PM IST
Civil Twilight 6:12 AM IST 6:39 PM IST
Nautical Twilight 5:46 AM IST 7:05 PM IST
Astronomical Twilight 5:20 AM IST 7:31 PM IST
Moon 1:24 PM IST (10/12) No Moon Set
Length of Visible Light 12h 26m
Length of Day
11h 41m
First Quarter, 54% of the Moon is Illuminated
Oct 12
First Quarter
Oct 19
Full
Oct 27
Last Quarter
Nov 3
New
Nov 10
First Quarter

Hourly Weather History & Observations

Time (IST) Temp. Heat Index Dew Point Humidity Pressure Visibility Wind Dir Wind Speed Gust Speed Precip Events Conditions
12:40 AM 78.8 °F - 77.0 °F 94% 29.74 in 2.5 mi South 4.6 mph - N/A   Haze
1:40 AM 77.0 °F - 75.2 °F 94% 29.74 in 2.5 mi WNW 5.8 mph - N/A   Haze
2:10 AM 77.0 °F - 75.2 °F 94% 29.74 in 2.5 mi North 4.6 mph - N/A   Haze
2:30 AM 77 °F - 73 °F 85% 29.78 in 1 mi Calm Calm - -   Haze
2:40 AM 77.0 °F - 75.2 °F 94% 29.74 in 2.5 mi NNW 5.8 mph - N/A   Haze
3:10 AM 77.0 °F - 75.2 °F 94% 29.77 in 2.5 mi North 3.5 mph - N/A   Haze
3:40 AM 77.0 °F - 75.2 °F 94% 29.77 in 2.5 mi ENE 2.3 mph - N/A   Haze
4:40 AM 75.2 °F - 71.6 °F 89% 29.77 in 1.9 mi NNE 3.5 mph - N/A   Haze
5:10 AM 75.2 °F - 73.4 °F 94% 29.77 in 2.2 mi NE 2.3 mph - N/A   Haze
5:30 AM 75 °F - 72 °F 89% 29.76 in 1 mi Calm Calm - -   Haze
5:40 AM 75.2 °F - 73.4 °F 94% 29.77 in 2.2 mi Calm Calm - N/A   Haze
7:10 AM 75.2 °F - 73.4 °F 94% 29.77 in 1.4 mi Calm Calm - N/A   Haze
7:40 AM 77.0 °F - 75.2 °F 94% 29.77 in 1.2 mi Calm Calm - N/A   Haze
8:10 AM 77.0 °F - 75.2 °F 94% 29.80 in 1.2 mi Calm Calm - N/A   Haze
8:30 AM 81 °F - 74 °F 72% 29.79 in 1 mi Calm Calm - -   Haze
8:40 AM 80.6 °F 87.1 °F 77.0 °F 89% 29.80 in 1.2 mi Calm Calm - N/A   Haze
9:10 AM 82.4 °F 90.9 °F 77.0 °F 84% 29.80 in 1.6 mi NE 2.3 mph - N/A   Haze
11:10 AM 87.8 °F 99.7 °F 77.0 °F 70% 29.77 in 2.5 mi NW 6.9 mph - N/A   Smoke
11:30 AM 87 °F - 75 °F 60% 29.78 in 2 mi NW 2.3 mph - -   Haze
12:10 PM 89.6 °F 104.7 °F 78.8 °F 70% 29.74 in 3.1 mi NNW 6.9 mph - N/A   Smoke
12:40 PM 89.6 °F 104.7 °F 78.8 °F 70% 29.74 in 3.7 mi NW 6.9 mph - N/A   Partly Cloudy
1:10 PM 91.4 °F 111.0 °F 80.6 °F 71% 29.71 in 3.7 mi North 5.8 mph - N/A   Scattered Clouds
1:40 PM 91.4 °F 111.0 °F 80.6 °F 71% 29.71 in 3.7 mi NNW 5.8 mph - N/A   Scattered Clouds
2:10 PM 91.4 °F 107.2 °F 78.8 °F 66% 29.71 in 3.7 mi NNW 5.8 mph - N/A   Scattered Clouds
2:30 PM 90 °F - 76 °F 57% 29.70 in 2 mi NW 5.8 mph - -   Haze
2:40 PM 91.4 °F 107.2 °F 78.8 °F 66% 29.68 in 3.7 mi WNW 6.9 mph - N/A   Scattered Clouds
3:10 PM 91.4 °F 107.2 °F 78.8 °F 66% 29.68 in 3.7 mi WNW 6.9 mph - N/A   Scattered Clouds
3:40 PM 91.4 °F 107.2 °F 78.8 °F 66% 29.68 in 3.7 mi NW 5.8 mph - N/A   Scattered Clouds
4:10 PM 91.4 °F 105.1 °F 77.0 °F 63% 29.68 in 3.7 mi NW 5.8 mph - N/A   Scattered Clouds
4:40 PM 91.4 °F 107.2 °F 78.8 °F 66% 29.68 in 3.7 mi NNW 4.6 mph - N/A   Scattered Clouds
5:10 PM 89.6 °F 104.7 °F 78.8 °F 70% 29.68 in 3.7 mi NNW 3.5 mph - N/A   Scattered Clouds
5:30 PM 89 °F - 77 °F 61% 29.68 in 2 mi NW 3.5 mph - -   Haze
5:40 PM 89.6 °F 104.7 °F 78.8 °F 70% 29.68 in 3.7 mi NNW 3.5 mph - N/A   Scattered Clouds
6:40 PM 87.8 °F 102.5 °F 78.8 °F 75% 29.68 in 2.5 mi NW 3.5 mph - N/A   Haze
7:10 PM 86.0 °F 96.9 °F 77.0 °F 74% 29.71 in 2.5 mi West 3.5 mph - N/A   Haze
7:40 PM 86.0 °F 99.3 °F 78.8 °F 79% 29.71 in 2.5 mi West 3.5 mph - N/A   Haze
8:10 PM 84.2 °F 94.1 °F 77.0 °F 79% 29.71 in 2.5 mi SW 4.6 mph - N/A   Haze
8:30 PM 82 °F - 77 °F 82% 29.72 in 1 mi Calm Calm - -   Haze
8:40 PM 84.2 °F 94.1 °F 77.0 °F 79% 29.74 in 2.5 mi West 4.6 mph - N/A   Haze
9:10 PM 84.2 °F 98.3 °F 80.6 °F 89% 29.74 in 2.5 mi Calm Calm - N/A   Haze
9:40 PM 84.2 °F 98.3 °F 80.6 °F 89% 29.77 in 2.5 mi West 3.5 mph - N/A   Haze
10:40 PM 82.4 °F 92.4 °F 78.8 °F 89% 29.77 in 2.5 mi West 5.8 mph - N/A   Haze
11:10 PM 82.4 °F 92.4 °F 78.8 °F 89% 29.74 in 2.5 mi WNW 3.5 mph - N/A   Haze
11:30 PM 82 °F - 77 °F 82% 29.75 in 1 mi Calm Calm - -   Haze
11:40 PM 82.4 °F 92.4 °F 78.8 °F 89% 29.74 in 2.5 mi WSW 3.5 mph - N/A   Haze